HULIANWANG DIGUI-156

导读 | 豆包AI

HULIANWANG DIGUI-156(NORAD编号68130)属于中国国网星座卫星系统,该星座旨在构建低轨宽带通信卫星网络,提供全球覆盖的互联网接入服务。作为星座组网的一部分,该卫星发射后进入近地轨道运行,与同批次其他卫星共同完成网络布局,支持天地一体化信息传输。NORAD编号68130是北美防空司令部为其分配的空间目标唯一识别码,用于全球轨道监测与碰撞预警,目前该卫星保持在轨运行状态,服务于天地一体化通信网络建设。

基本信息
目录编号:
68130
目录名称:
HULIANWANG DIGUI-156
国际标识:
2026-047B
轨道中心:
EARTH
卫星名称:
HULIANWANG DIGUI-156
卫星全名:
HULIANWANG DIGUI-156
卫星状态:
在轨 (已飞行34 天)
发射日期:
2026-03-12 UTC
国别 :
中国 (CN)
星等 :
--
轨道信息
数据来源 国际轨道数据
星历时间: 2026-04-15T01:02:35+0800
13小时前
查看轨道信息
半长轴: 7391.647km
偏心率: 0.0000675
轨道倾角: 50.006°
近地点辐角 308.158°
升交点赤经 286.663°
平近点角 51.925°
近地点: 1013.011km
远地点: 1014.009km
周期: 105.407分钟
每日圈数: 13.661267
详细信息
使用方式:
暂无
2D轨道图
3D轨道图
轨道高度分析图
轨道倾角分析图
轨道综合分析图
查看轨道综合分析图